Flag for U.S.A. Weather past 2 weeks in Downey, California, U.S.A.

Now
71 °F

Clear.


Feels Like: 72 °F
Forecast: 67 / 86 °F
Wind: 7 mph from Northwest

Location: Long Beach Airport

Current Time: Jul 27, 2015 at 10:51:40 PM

Latest Report: Jul 27, 2015 at 9:53 PM


Visibility: 10 mi

Pressure: 29.90 "Hg

Humidity: 78%

Dew point: 64 °F

Location of DowneyLocation

Historic Weather in Downey — Graph

°F

Downey temperature yesterday

Maximum temperature yesterday: 81 °F (at 4:53 PM)
Minimum temperature yesterday: 67 °F (at 5:53 AM)
Average temperature yesterday: 74 °F

Past Weeks' High & Low Weather Summary

 TemperatureHumidityPressure
High88 °F (Jul 18, 11:53 AM)91% (Jul 20, 9:53 PM)30.08 "Hg (Jul 20, 9:53 PM)
Low66 °F (Jul 14, 3:53 AM)33% (Jul 18, 11:53 AM)29.78 "Hg (Jul 17, 5:53 PM)
Average74 °F70%29.93 "Hg
* Reported Jul 12 9:53 PM — Jul 27 9:53 PM, Downey, Weather by CustomWeather, © 2015

Note: Actual official high and low records may vary slightly from our data, if they occured in-between our weather recording intervals... More about our weather records

Advertising

Downey weather history for previous 24 hours

 ConditionsComfort  
Time TempWeatherWind HumidityBarometerVisibility
9:53 PM
Mon, Jul 27
71 °FClear.7 mph78%29.90 "Hg10 mi
8:53 PM73 °FSunny.9 mph74%29.88 "Hg10 mi
7:53 PM74 °FSunny.12 mph69%29.87 "Hg10 mi
6:53 PM77 °FSunny.3 mph54%29.85 "Hg10 mi
5:53 PM77 °FSunny.8 mph56%29.85 "Hg10 mi
4:53 PM77 °FSunny.8 mph58%29.86 "Hg10 mi
3:53 PM76 °FSunny.12 mph60%29.88 "Hg10 mi
1:53 PM77 °FSunny.7 mph56%29.90 "Hg10 mi
12:53 PM77 °FSunny.7 mph56%29.92 "Hg10 mi
11:53 AM75 °FSunny.8 mph60%29.93 "Hg10 mi
10:53 AM75 °FSunny.10 mph60%29.93 "Hg10 mi
10:00 AM75 °FSunny.5 mph55%29.94 "Hg10 mi
9:53 AM75 °FPartly sunny.3 mph55%29.94 "Hg10 mi
8:53 AM72 °FPartly sunny.6 mph64%29.94 "Hg10 mi
7:53 AM71 °FOvercast.7 mph66%29.93 "Hg10 mi
6:53 AM70 °FOvercast.6 mph68%29.92 "Hg10 mi
5:53 AM70 °FOvercast.6 mph71%29.91 "Hg10 mi
4:53 AM70 °FOvercast.No wind68%29.90 "Hg10 mi
3:53 AM70 °FOvercast.3 mph68%29.90 "Hg10 mi
2:53 AM70 °FOvercast.6 mph71%29.90 "Hg10 mi
1:53 AM70 °FOvercast.6 mph76%29.91 "Hg10 mi
12:53 AM70 °FOvercast.3 mph79%29.91 "Hg10 mi
11:53 PM
Sun, Jul 26
70 °FClear.No wind76%29.91 "Hg10 mi
10:53 PM70 °FClear.No wind73%29.92 "Hg10 mi
Weather by CustomWeather, © 2015

See weather overviewHow to use our weather pages